RH
67 65 60 56 58 61 63 71 77 74 76 81 78 78 81 80 82 87 87 89 91 83 71 69 73 69 63 62 60 59 56 42 23 13 12 11 10 10 9 9 9 10 12 15 18 21 23 25 27 28 29 30 30 31 33 35 34 30 26 21 18 15 14 14 13 14 14 14 14 14 15 15 15 16
65 61 56 54 57 61 67 76 78 73 78 81 78 83 86 82 87 93 90 89 93 92 78 66 70 70 61 56 55 56 50 36 21 14 11 10 9 8 7 8 9 11 14 16 19 22 24 25 26 28 29 29 30 32 35 37 36 33 29 24 21 19 18 18 18 18 18 18 18 18 18 19 19 21
60 58 55 55 54 59 71 75 72 75 81 80 78 83 84 81 85 90 92 92 93 91 78 63 60 58 54 52 52 49 39 26 18 14 10 9 7 7 8 9 10 13 15 17 20 22 24 25 26 27 28 28 30 32 34 36 36 36 34 31 27 24 23 23 23 23 22 22 22 22 23 23 24 26
59 58 56 55 52 57 70 71 69 75 77 72 72 75 77 78 80 82 86 90 88 82 74 63 49 42 44 48 47 38 24 15 12 10 8 7 6 7 8 10 12 14 17 19 21 23 24 25 26 26 27 29 30 31 31 32 33 34 35 35 34 32 30 28 26 26 25 26 26 26 26 26 27 28
54 57 60 59 57 63 74 73 68 69 71 69 69 72 74 72 73 76 78 83 80 66 58 51 38 32 34 32 27 19 10 8 8 6 6 6 6 8 9 12 14 16 19 21 22 24 25 26 27 28 29 29 29 29 30 30 31 33 35 36 37 36 35 33 31 29 28 28 28 28 28 28 28 28
57 59 60 59 62 69 72 69 65 67 71 70 67 69 71 68 69 69 62 62 60 43 32 31 27 26 24 17 13 10 7 8 7 6 7 6 6 8 10 12 15 17 20 21 23 24 25 27 27 28 28 29 30 30 31 33 36 38 39 40 40 38 38 37 36 33 30 29 30 30 30 30 29 29
61 57 55 54 60 62 58 60 65 65 67 75 75 66 63 65 69 66 52 45 43 29 19 20 19 17 16 13 13 14 13 14 12 11 11 10 10 10 11 14 16 19 21 23 24 25 26 27 28 28 29 29 30 32 36 42 46 48 48 47 46 44 41 41 40 37 32 30 31 31 32 33 32 32
59 56 56 58 59 54 52 59 64 61 67 87 87 62 46 46 49 54 52 46 42 34 27 29 28 26 25 24 22 23 24 23 23 22 20 19 18 17 16 18 18 20 22 24 26 26 27 28 29 30 30 31 35 43 51 57 58 59 59 56 54 50 47 44 43 40 35 31 31 32 34 35 36 35
60 60 63 68 67 58 56 59 58 55 61 71 67 52 49 46 43 51 54 49 47 45 44 47 47 44 44 43 39 36 36 35 33 32 31 31 30 28 28 27 26 27 29 29 30 29 30 32 32 34 36 41 51 58 62 62 63 64 64 63 61 58 53 49 45 42 37 32 32 33 36 38 39 38
66 66 66 71 71 62 56 55 54 53 51 50 50 55 64 63 58 60 59 55 56 56 56 61 62 59 57 59 59 52 46 47 46 43 39 38 38 38 38 35 33 35 37 37 36 35 35 36 36 39 45 52 59 61 61 62 64 66 65 64 62 61 59 53 48 43 36 32 33 35 39 41 40 38
60 65 64 64 64 60 57 54 54 55 54 56 59 63 70 72 68 66 67 68 68 66 66 67 74 79 73 67 73 75 66 57 57 58 53 48 47 48 49 48 48 49 49 50 50 48 48 49 51 54 57 60 61 61 62 63 64 67 68 65 61 58 54 49 44 39 34 33 35 38 41 43 41 39
52 60 58 56 59 62 63 61 62 63 65 68 68 68 73 72 64 61 66 69 70 75 77 74 78 89 88 79 80 90 89 76 69 69 68 64 63 62 60 58 56 55 55 57 60 63 64 63 64 67 67 66 62 59 58 58 62 68 71 69 63 58 52 46 41 37 34 35 38 41 43 43 41 39
52 55 51 53 59 61 61 60 62 63 62 62 62 63 66 66 62 63 66 68 71 77 82 83 85 90 95 94 89 92 98 95 88 84 81 81 81 78 75 70 61 55 58 58 59 65 73 72 69 68 69 66 62 57 54 54 61 69 73 72 69 66 63 58 53 49 43 40 41 43 44 44 42 40
55 51 48 51 52 50 49 49 52 53 51 51 52 53 55 59 64 68 72 76 79 81 83 86 89 89 90 94 95 95 97 99 99 98 95 95 95 93 94 91 81 74 73 71 68 68 73 75 74 73 75 73 69 66 62 60 63 70 76 78 77 77 78 77 74 67 55 45 43 45 46 45 43 42
51 47 48 50 50 51 53 53 55 58 60 61 62 63 64 65 67 69 73 77 81 84 85 85 87 88 87 87 89 93 95 94 95 98 98 99 100 100 100 98 95 93 89 86 83 75 69 69 72 72 72 72 72 72 73 74 75 78 84 88 87 88 90 90 88 80 62 47 45 47 48 47 45 43
50 50 52 55 58 61 62 63 64 65 67 68 69 69 71 73 76 77 76 75 76 78 79 81 84 86 86 85 84 87 89 90 91 95 97 98 97 97 97 94 93 96 96 94 94 90 81 81 84 79 71 66 65 66 71 77 79 80 84 89 90 90 89 88 90 86 68 50 48 52 52 49 46 44
57 61 63 65 66 65 63 63 64 64 63 64 64 66 70 74 76 77 77 78 80 79 76 77 78 80 82 82 80 81 83 84 85 88 90 91 91 90 89 88 88 90 91 91 94 95 91 87 86 87 84 76 68 66 69 74 80 80 80 84 87 89 90 90 92 91 76 58 54 58 55 50 47 45
72 73 74 75 73 72 72 69 66 66 67 66 66 70 75 78 77 76 77 80 84 86 84 80 79 80 80 76 71 73 77 78 79 79 79 82 83 82 80 80 82 84 84 85 88 91 90 82 78 84 89 80 73 77 80 83 85 84 80 81 88 94 97 98 96 87 72 60 59 61 57 51 50 50
71 73 77 82 79 78 85 85 77 72 72 72 72 74 78 80 79 75 74 77 81 84 85 84 82 80 77 74 70 71 75 77 78 79 80 80 80 79 76 72 68 66 67 72 78 81 81 78 78 85 90 84 82 85 86 84 80 73 69 77 91 97 98 101 96 77 62 62 64 61 56 52 54 55
60 61 69 82 82 76 81 88 84 78 75 75 74 73 75 77 77 73 73 74 75 77 82 85 84 81 79 79 78 78 80 81 80 79 80 81 79 76 72 64 56 52 55 62 71 74 72 71 74 79 82 85 84 74 66 68 69 64 65 78 93 96 92 94 89 72 64 67 65 60 59 60 61 58
67 70 75 85 86 76 71 74 81 84 81 77 75 74 75 77 75 72 74 74 73 75 82 86 86 86 85 83 81 82 82 81 78 74 71 70 67 61 56 50 46 46 49 54 60 64 63 60 60 59 59 64 63 54 52 64 72 73 76 85 95 97 92 86 81 73 69 69 66 66 68 68 67 61
64 72 81 89 90 82 72 67 69 73 70 65 66 71 77 82 81 79 83 86 83 81 83 86 87 87 84 82 82 83 81 77 73 68 64 61 56 50 46 42 40 41 41 41 46 54 56 53 53 54 53 54 58 62 68 78 86 89 90 91 93 94 90 84 78 75 74 73 73 75 73 72 71 64
49 57 69 81 85 82 77 70 63 62 62 65 71 79 87 93 94 92 92 90 84 78 75 76 76 73 71 76 80 79 77 76 76 74 71 64 55 48 44 42 44 48 49 49 54 58 59 59 60 60 62 69 79 80 75 78 88 90 86 83 82 82 85 85 82 81 79 78 78 76 74 76 75 64
48 51 55 63 68 69 70 68 65 69 76 84 89 93 97 99 97 93 88 81 76 73 70 69 68 66 67 72 75 72 69 69 71 72 71 65 58 54 53 54 57 61 61 62 64 64 65 68 66 68 75 79 78 71 64 68 81 83 78 77 78 82 87 86 82 81 78 76 76 75 76 79 76 63
48 52 57 64 70 75 78 80 84 89 94 97 94 91 90 89 85 82 80 78 78 77 76 75 74 72 73 74 74 75 75 74 72 72 71 70 68 67 66 66 65 66 66 68 68 67 69 70 67 74 83 74 58 59 68 75 81 84 83 81 79 82 83 79 76 77 75 74 78 78 77 80 74 56
67 74 83 87 89 90 91 92 94 95 96 95 92 88 86 84 84 84 84 84 84 82 80 78 74 72 73 71 66 65 70 71 70 67 66 68 69 69 69 68 67 66 67 70 69 65 65 70 74 82 86 72 61 71 86 90 89 88 83 79 77 77 77 75 74 75 74 77 79 77 78 82 71 42
84 86 89 90 89 90 89 88 89 88 87 85 83 81 79 77 76 76 74 73 72 69 68 66 65 67 71 70 66 64 68 73 71 64 65 67 64 63 68 72 74 76 76 74 73 71 71 74 80 87 89 85 82 87 94 98 98 93 85 79 76 73 72 73 75 76 77 79 79 80 83 80 57 27
79 78 78 79 80 80 78 76 74 71 68 66 63 59 57 55 54 52 52 51 51 51 53 54 56 60 63 65 65 64 66 72 72 70 75 79 73 71 77 80 81 84 83 75 72 76 80 76 74 82 92 98 97 95 94 95 94 89 82 76 72 71 75 77 78 80 80 79 83 87 80 59 33 15
65 65 65 64 62 61 59 56 54 51 48 44 41 39 38 36 34 33 31 31 30 30 31 32 32 34 36 36 37 39 45 55 64 67 71 75 79 82 85 85 84 84 81 77 74 77 81 77 72 80 91 96 98 98 97 95 90 84 79 75 73 79 83 82 82 82 81 84 89 82 57 31 16 13
42 41 40 39 37 36 35 33 31 29 27 24 22 21 19 17 16 15 13 13 12 11 11 12 11 12 14 16 19 24 34 50 63 66 64 70 84 91 89 90 89 75 60 59 62 67 73 75 77 84 90 92 95 98 99 98 95 88 84 81 82 86 88 86 84 83 84 90 85 60 30 16 15 14
20 18 18 17 16 15 14 13 13 11 10 10 9 8 8 8 8 8 7 7 7 7 8 9 9 9 12 15 17 19 26 41 53 51 46 50 65 76 81 86 80 55 32 29 38 52 69 80 82 85 86 87 91 96 98 99 99 94 90 89 90 93 93 90 89 89 90 86 67 39 20 16 17 14
7 7 7 7 7 7 7 7 7 6 6 7 7 7 8 8 8 8 8 8 8 9 9 10 11 13 16 17 18 20 26 40 51 54 55 60 69 77 83 77 56 30 17 20 34 52 71 82 85 87 88 89 94 97 97 99 100 97 95 95 98 99 98 96 96 95 86 67 43 25 19 18 17 14
6 7 7 8 8 8 8 8 8 8 8 9 9 10 9 9 9 9 9 9 9 11 12 12 13 17 20 20 24 31 40 55 70 79 83 87 88 83 73 56 36 23 25 40 60 75 81 85 92 97 97 97 99 98 97 98 100 99 98 100 101 100 99 99 95 84 65 42 26 20 19 20 21 19
8 8 9 10 10 10 10 10 9 9 9 9 9 9 8 8 8 8 8 10 10 10 12 14 13 16 21 25 31 38 47 58 69 72 72 73 74 67 56 52 54 57 62 75 91 97 96 96 99 101 100 100 99 97 97 98 99 100 100 100 100 100 99 94 80 60 42 28 22 20 20 24 29 29
11 11 11 11 10 9 9 9 8 8 8 7 7 7 8 8 7 7 8 10 10 10 13 15 15 17 23 29 35 39 42 46 53 58 61 65 69 69 71 80 90 92 92 96 100 100 100 100 100 99 100 100 98 98 99 99 99 100 100 100 100 98 92 78 59 41 31 27 24 22 22 28 37 41
11 11 10 9 8 8 7 7 7 7 7 7 7 7 7 8 7 7 7 8 8 11 16 19 20 21 25 33 40 45 48 55 63 67 66 66 69 76 86 96 100 99 99 101 100 99 99 98 96 95 95 96 97 99 99 99 99 100 100 100 96 87 75 60 44 33 29 28 27 26 27 34 44 51
10 9 9 8 7 7 8 8 8 9 9 9 9 9 9 10 9 8 8 8 8 12 19 23 25 28 33 40 44 46 52 62 68 70 72 77 84 91 97 97 95 93 92 88 86 84 81 76 74 74 76 84 93 96 96 99 100 99 98 93 82 68 55 44 36 32 32 32 32 32 36 42 51 58
8 8 8 9 9 10 11 12 12 12 13 12 12 12 12 12 11 10 10 9 8 13 20 26 30 38 46 50 49 52 64 79 85 87 92 98 99 97 93 88 85 85 84 81 81 81 76 70 70 72 77 86 95 98 98 100 100 96 92 82 66 52 43 38 37 38 40 40 40 42 47 51 56 64
9 11 11 12 12 12 12 13 13 14 15 15 14 15 15 14 13 12 11 11 11 13 20 28 38 48 56 59 58 61 73 86 91 91 93 95 94 90 87 85 86 89 91 92 93 95 93 91 91 92 93 95 98 100 100 100 98 93 85 71 55 44 40 39 40 42 43 43 45 51 58 62 65 71
10 11 10 10 10 9 8 10 11 12 14 16 17 17 17 16 16 15 14 14 16 18 22 29 40 51 61 68 71 72 74 78 78 76 78 82 84 85 88 92 95 97 98 96 94 94 96 97 98 99 99 99 99 100 98 95 90 83 72 59 47 42 42 42 42 43 44 47 52 60 67 71 74 76
7 7 6 5 6 6 6 8 11 13 16 20 20 20 20 21 22 25 26 28 29 31 32 35 44 59 71 78 80 82 82 83 83 83 85 88 91 92 96 99 101 100 99 95 91 89 89 91 94 96 98 99 100 99 93 84 77 71 65 58 50 46 45 44 43 46 50 55 61 68 72 74 77 78
4 4 4 4 4 5 7 10 14 18 23 25 25 27 32 36 37 37 39 42 44 44 43 45 55 70 81 86 89 93 95 95 95 96 96 97 98 98 96 94 93 95 97 95 89 86 87 88 89 90 91 93 96 95 88 80 74 70 66 61 54 48 45 43 44 51 61 68 72 76 80 82 84 84
5 4 4 5 4 5 8 12 18 24 30 33 33 35 40 47 49 46 45 47 48 49 50 53 59 69 80 88 94 98 100 100 100 101 101 100 99 96 91 86 85 90 94 93 86 83 85 87 87 86 83 83 85 86 82 76 72 67 62 57 51 47 46 46 47 54 66 77 82 86 90 93 92 90
5 4 4 5 5 6 9 13 19 25 31 36 38 39 41 44 46 45 44 45 47 49 51 53 55 62 71 81 89 96 100 100 98 97 97 97 95 91 86 84 84 87 92 93 88 84 85 88 87 82 74 68 67 70 70 66 62 59 55 52 50 47 47 49 53 59 71 85 92 94 95 96 94 92
5 5 4 5 6 9 11 14 19 24 28 32 36 40 43 45 45 44 43 43 45 47 49 52 55 59 65 71 78 86 90 89 85 83 86 89 91 90 89 91 92 91 90 90 89 87 89 91 88 80 68 57 52 52 53 52 51 50 49 50 52 51 50 52 57 63 72 84 92 95 94 95 96 94
Wind_Speed
7 7 7 7 6 6 8 9 8 8 9 9 7 7 7 7 7 7 8 9 9 10 9 6 6 7 8 8 8 8 7 6 6 6 5 5 4 4 4 4 6 7 8 9 9 9 8 6 5 4 3 3 3 4 5 5 6 6 7 7 7 7 7 7 8 9 10 12 13 14 15 15 16 16
7 7 5 4 6 7 7 8 7 8 9 8 7 7 8 8 7 7 8 8 8 10 9 5 6 8 8 8 8 7 7 7 7 7 6 6 5 4 4 5 6 7 8 9 9 8 7 6 5 5 5 5 5 6 6 7 7 8 8 9 9 9 9 9 10 10 11 12 13 14 14 15 15 16
8 8 5 5 7 7 5 7 8 8 8 7 7 8 8 8 7 8 9 9 8 11 11 6 4 7 7 7 8 7 7 7 7 7 7 6 5 4 5 5 6 7 8 8 8 8 7 7 7 7 7 7 7 8 8 9 9 10 10 11 11 11 11 11 11 11 12 12 13 14 14 14 15 16
8 8 8 7 7 5 4 7 8 9 9 7 7 8 7 6 6 8 9 8 9 11 12 9 5 6 6 5 7 7 7 7 7 7 6 6 5 5 5 6 6 7 8 8 8 8 8 8 8 9 9 9 10 10 11 11 12 12 12 13 13 13 13 13 13 13 13 13 14 14 15 15 16 17
6 7 8 7 6 4 5 7 8 8 8 6 5 6 6 5 5 8 9 7 9 10 11 10 7 5 5 4 4 6 6 6 6 6 6 6 6 6 6 7 7 8 9 9 9 9 9 10 10 11 11 12 12 13 13 14 14 14 14 15 15 15 15 15 15 15 15 15 16 16 17 18 18 19
5 7 7 6 5 5 6 8 8 7 6 4 5 6 6 5 4 7 8 5 8 8 7 7 6 4 5 3 3 4 4 4 5 6 6 6 7 7 7 8 9 9 10 10 10 11 11 12 13 13 14 14 15 15 15 16 16 16 16 17 17 18 18 18 17 17 17 17 18 19 20 21 22 22
6 6 6 6 5 5 7 7 7 6 4 3 5 6 6 7 6 6 7 4 6 7 5 4 4 4 5 4 3 4 4 4 4 5 6 6 7 8 9 10 10 11 12 12 12 13 14 14 15 15 16 16 17 17 17 17 18 18 19 19 19 20 20 19 19 19 19 19 20 21 22 23 24 25
6 6 6 6 6 5 6 7 6 5 6 7 8 6 4 7 7 6 7 6 6 6 5 5 4 4 5 6 5 4 5 6 6 6 7 7 8 9 10 11 12 12 13 14 14 15 16 17 17 17 18 18 18 19 19 19 19 20 20 21 21 22 21 21 21 21 21 21 22 23 24 25 26 27
6 6 6 6 6 5 5 6 6 6 7 7 7 5 4 6 7 6 8 8 7 6 6 6 7 6 5 7 9 7 6 8 9 8 8 9 11 11 11 13 14 14 14 15 17 18 18 19 19 19 20 20 20 20 20 20 20 21 21 22 22 23 23 23 23 23 23 24 24 25 26 27 28 28
5 5 5 5 5 5 5 5 6 7 7 5 5 5 5 6 8 9 9 8 8 7 6 7 9 10 8 8 11 13 11 9 11 13 12 12 13 13 14 15 15 14 15 17 19 20 21 21 21 21 21 22 22 22 22 22 23 23 23 23 24 24 24 24 25 25 26 26 27 27 28 29 29 30
5 5 5 5 5 5 5 5 6 7 7 6 6 7 7 7 8 9 9 8 8 9 10 10 11 12 13 11 10 13 16 14 13 14 16 17 16 15 17 18 17 16 17 18 19 21 22 22 22 22 23 23 23 23 24 24 25 25 25 25 26 26 26 26 27 27 27 28 28 29 29 30 31 31
6 6 6 6 5 5 5 5 6 6 7 7 8 7 8 9 9 8 9 9 9 10 11 12 12 11 14 14 11 12 15 17 16 13 13 16 17 17 17 17 17 16 16 16 17 18 20 21 21 21 21 22 22 23 23 23 24 25 25 26 26 26 27 28 28 29 29 30 30 30 31 32 32 33
6 6 6 5 4 5 6 6 6 7 8 9 10 9 9 11 11 11 12 12 12 12 12 13 13 13 14 15 15 15 15 15 17 17 15 15 17 18 18 19 20 19 17 17 16 14 16 18 19 19 20 21 22 23 22 22 22 23 25 26 27 27 28 29 30 31 31 31 32 32 32 33 33 33
6 6 5 5 6 7 8 8 9 10 11 11 13 13 12 12 13 13 13 13 14 14 14 14 14 14 15 16 17 19 18 15 15 18 20 20 19 20 20 21 22 22 22 22 21 18 17 19 20 20 21 22 23 24 24 23 23 24 26 28 28 29 30 31 32 34 34 33 33 33 34 34 34 34
8 8 7 8 9 9 10 11 11 12 13 13 14 15 15 14 14 14 14 15 16 16 15 16 15 15 17 18 18 20 20 18 19 21 23 22 21 22 23 23 22 22 24 26 27 25 24 23 23 23 24 25 25 26 27 26 26 27 29 30 31 32 33 34 34 35 36 35 34 34 35 34 34 34
9 9 10 10 11 11 12 12 12 13 14 14 15 16 16 16 16 16 16 17 19 20 19 19 18 18 19 20 20 21 21 21 22 23 23 23 22 22 24 24 23 23 24 27 29 30 29 29 29 28 29 29 30 30 30 28 29 31 32 33 35 36 37 37 37 37 37 36 35 35 35 35 34 34
12 13 14 15 15 15 15 14 14 15 16 16 17 18 18 18 17 17 18 19 20 22 23 23 22 22 23 22 22 23 23 23 24 24 23 23 24 24 24 25 26 26 26 28 30 31 31 32 34 35 34 35 36 36 34 33 33 34 35 36 36 37 39 39 37 37 37 37 36 36 36 35 34 34
15 16 16 17 17 16 16 15 15 16 17 17 18 18 18 20 19 18 18 19 20 22 23 24 23 24 25 24 24 24 24 25 26 26 27 27 28 28 28 29 29 29 30 32 33 33 32 34 38 38 37 39 41 42 40 39 39 39 39 39 37 37 38 39 36 35 35 36 36 37 37 36 35 35
18 19 19 19 17 16 16 16 15 16 17 18 19 19 20 21 21 20 20 21 22 23 23 24 24 25 26 26 25 25 25 26 27 28 29 30 30 31 32 32 32 32 32 34 35 35 34 35 39 39 38 40 43 44 43 43 43 44 44 43 41 39 38 38 37 35 36 37 38 38 38 36 36 36
21 22 23 21 17 15 17 19 19 18 19 19 21 24 25 24 23 22 21 23 24 25 25 26 27 28 29 28 27 27 27 28 29 30 31 31 31 32 33 33 33 33 33 33 34 36 35 35 38 39 38 40 41 42 43 44 45 46 45 44 44 41 36 35 36 37 38 39 39 39 38 36 36 37
23 24 24 22 19 17 19 21 22 22 22 23 25 28 29 29 27 26 25 25 26 26 27 27 27 28 28 27 27 27 27 28 29 31 32 31 31 33 33 32 32 33 34 32 30 32 33 32 34 36 36 37 39 41 43 44 46 48 47 46 45 41 34 33 36 39 41 42 42 41 39 37 37 38
25 25 25 24 22 21 21 22 24 26 27 28 29 31 32 32 32 31 29 27 25 25 26 25 24 24 24 25 27 27 26 27 28 30 31 30 31 32 32 31 31 32 34 33 29 29 31 31 32 34 35 37 39 41 43 43 43 44 43 41 40 37 34 35 39 42 44 45 44 42 40 39 38 38
27 27 26 25 24 23 23 25 26 28 29 31 31 33 33 33 32 31 30 27 23 22 23 23 23 23 23 23 24 25 25 25 27 29 30 30 31 31 31 30 30 32 35 35 33 34 35 36 36 37 38 39 40 42 43 41 39 38 38 36 36 36 36 39 41 43 44 44 44 42 41 40 38 36
28 28 27 27 27 28 28 29 30 30 30 29 27 26 26 26 26 26 26 26 25 23 23 23 24 25 25 24 25 26 26 26 27 29 30 31 32 33 33 33 34 36 38 38 39 41 42 42 41 42 42 42 41 41 41 39 36 37 38 38 38 38 39 40 40 41 41 42 42 42 41 40 38 36
29 29 28 29 30 31 31 30 29 27 26 24 22 22 22 23 24 24 25 26 27 27 27 27 28 29 29 29 30 30 30 29 30 31 32 33 35 36 38 39 40 41 40 40 42 44 45 45 44 43 44 43 41 41 39 36 35 36 38 38 38 38 38 38 39 40 41 41 41 41 40 38 37 36
30 29 28 28 28 27 26 25 24 23 23 23 24 25 26 27 27 27 28 29 30 31 32 33 33 33 33 34 35 35 35 35 35 34 34 35 37 39 40 41 41 42 41 41 42 43 44 43 42 41 42 42 40 39 37 34 34 37 38 38 38 37 37 38 40 42 42 41 40 39 38 37 36 35
27 26 25 25 24 24 25 25 25 25 26 27 28 29 30 31 31 32 32 32 33 34 35 36 36 35 35 35 36 36 37 37 38 38 37 37 38 39 39 38 38 38 38 39 39 39 40 41 40 40 41 40 38 37 35 33 34 35 36 37 37 36 38 40 42 43 43 42 41 39 37 36 35 35
23 23 24 24 25 26 27 28 28 29 29 30 31 32 33 34 34 35 35 36 37 37 37 38 38 38 37 37 37 38 38 39 40 40 40 40 39 38 37 38 38 37 37 37 38 37 38 39 39 40 40 37 34 33 34 34 33 33 34 35 35 36 37 39 42 43 43 43 41 37 33 32 32 34
22 23 25 26 28 29 30 31 31 32 32 33 34 35 36 36 37 37 38 38 38 39 39 40 40 40 40 41 41 40 40 39 39 39 40 40 38 36 36 36 36 36 36 37 37 37 37 38 38 37 38 36 33 33 35 34 34 33 33 34 34 34 36 39 42 43 42 41 38 34 30 29 31 32
24 25 26 28 30 31 32 33 34 34 35 36 37 37 37 38 38 38 38 37 38 38 39 39 40 40 39 38 38 38 37 36 36 38 39 37 35 34 34 33 34 35 35 35 35 35 36 37 36 35 36 37 36 36 35 34 34 34 34 34 34 34 36 40 42 41 39 37 33 29 28 29 30 31
26 27 27 28 30 31 32 32 32 33 34 35 35 35 34 34 34 34 35 35 35 35 35 35 36 36 35 34 33 34 34 34 36 37 38 38 37 36 36 35 36 36 34 32 32 33 34 36 36 36 37 38 37 36 35 35 35 35 35 34 34 36 39 41 40 37 35 33 28 25 27 29 30 30
24 24 24 25 26 26 27 27 28 29 29 29 29 29 29 29 30 30 31 32 32 33 33 33 34 35 34 34 33 33 32 32 32 33 34 35 36 37 38 38 38 36 34 32 31 31 33 35 36 37 38 37 37 37 37 36 35 35 34 34 36 37 39 38 36 33 30 27 25 25 27 27 28 29
21 21 20 21 22 22 23 25 26 26 26 25 25 25 26 27 27 28 28 28 28 28 28 30 30 31 32 32 32 32 31 30 28 29 31 33 36 37 38 38 36 34 32 30 29 30 33 35 36 37 38 37 37 37 36 34 32 32 33 34 35 35 35 34 32 29 26 24 25 26 26 25 26 28
18 19 19 20 21 22 22 23 24 23 23 23 22 22 23 23 23 23 23 23 24 24 24 25 26 26 27 28 28 30 31 31 30 31 32 33 34 34 33 32 31 31 30 29 29 29 30 30 31 31 31 31 30 30 30 29 30 30 31 32 32 32 31 29 27 26 25 25 26 25 24 23 24 26
17 18 19 20 21 21 20 19 19 18 18 18 18 19 19 20 20 20 20 20 22 23 22 21 22 23 23 24 24 26 29 30 31 31 30 29 29 30 29 28 28 27 26 24 23 22 21 22 22 22 22 22 23 24 25 27 28 30 30 30 30 29 28 26 25 25 26 25 25 25 24 22 22 23
16 16 17 17 17 16 15 15 15 16 17 18 19 19 20 21 22 23 22 22 23 23 21 21 22 22 22 22 22 23 25 26 27 26 26 27 26 25 22 21 19 18 17 17 17 18 19 20 21 21 22 21 21 22 23 25 27 28 29 28 26 25 24 23 23 23 24 23 24 24 23 22 21 20
13 12 12 13 13 13 14 15 16 18 19 20 21 22 21 22 24 24 25 26 25 22 20 20 22 23 22 21 21 21 21 22 22 22 21 19 17 15 14 15 16 17 17 18 19 20 22 23 24 25 25 23 22 22 23 24 24 25 25 24 22 21 21 21 21 21 21 21 22 23 22 21 20 19
9 9 11 12 13 14 15 17 18 19 20 21 22 22 22 23 24 24 25 26 26 22 19 19 20 21 21 20 19 18 16 16 16 17 16 14 14 15 17 19 19 19 19 19 19 20 22 24 25 25 24 23 22 23 23 24 24 24 23 21 19 19 19 19 19 19 19 20 20 21 21 20 19 17
10 10 12 13 15 16 17 17 18 19 20 21 22 23 23 23 23 23 24 25 24 22 20 18 18 19 18 18 17 16 15 15 16 18 19 19 19 19 19 18 17 16 15 15 16 16 18 19 20 20 21 22 22 22 22 23 23 23 20 18 17 17 17 17 18 18 18 19 19 19 18 18 17 16
12 13 14 15 16 17 18 19 20 20 21 21 22 23 23 22 22 22 23 23 22 21 20 19 17 17 17 17 17 17 16 16 17 19 20 20 20 18 16 15 14 13 13 13 14 15 15 15 16 16 17 18 19 20 20 19 19 19 18 16 15 15 16 16 17 17 17 17 17 16 16 15 15 15
13 14 15 16 17 18 19 20 20 21 21 21 20 20 21 21 21 21 21 20 20 20 19 19 18 17 17 17 17 16 16 16 16 17 16 15 15 16 16 15 14 14 15 16 17 16 16 16 16 15 15 16 17 17 17 16 16 16 15 15 14 15 15 15 16 16 16 16 16 15 15 15 15 16
13 15 16 17 18 19 19 20 20 20 20 20 19 19 18 17 17 17 16 16 16 17 17 17 18 18 18 17 15 15 15 15 15 14 14 13 13 15 16 17 18 17 18 19 18 17 17 17 17 16 15 15 15 15 15 14 13 13 14 14 14 14 15 15 15 14 15 16 15 14 15 16 16 17
13 15 16 17 18 18 19 19 19 19 19 19 18 17 16 16 15 15 14 14 14 15 15 16 16 16 16 15 14 14 14 13 12 12 13 15 16 17 19 20 21 19 18 18 18 16 15 16 16 15 14 13 13 13 13 13 12 12 13 14 14 14 15 15 15 14 14 14 14 13 14 16 17 17
13 14 15 16 17 18 18 18 18 18 19 18 18 17 17 16 16 16 15 15 14 14 14 14 15 15 15 15 15 15 15 14 14 14 16 17 19 20 22 22 22 21 19 18 17 16 14 14 14 14 13 11 11 11 12 12 12 13 14 14 13 13 14 15 15 14 13 12 11 12 13 14 15 16
13 14 15 15 16 17 17 17 17 17 18 18 18 18 18 17 16 16 15 15 14 14 14 13 14 14 14 15 15 16 16 17 17 17 18 18 19 21 22 22 21 21 20 18 16 15 14 14 14 14 12 11 10 10 10 11 11 12 13 13 13 13 13 14 15 14 12 9 9 9 11 12 13 14
Wind_Direction
234 233 234 232 231 233 230 226 215 209 219 220 207 200 209 219 225 228 228 225 239 259 258 236 228 235 238 242 249 255 259 263 267 266 263 263 262 250 233 209 192 185 180 178 178 178 181 183 189 200 217 244 277 299 310 313 310 309 309 308 309 308 306 304 303 304 306 309 313 316 319 321 323 325
241 244 238 223 225 228 226 224 219 214 215 211 199 199 209 219 224 233 242 240 239 257 273 274 244 245 249 252 257 261 266 270 271 272 273 271 266 251 231 211 194 189 188 187 189 192 197 205 218 233 249 269 285 296 303 304 304 304 305 304 304 303 304 305 307 309 311 314 316 317 319 320 321 323
236 241 241 235 233 227 217 220 222 217 211 205 205 210 217 225 229 237 246 250 248 259 281 303 264 254 263 270 272 272 273 275 273 273 274 271 265 247 228 218 206 200 199 200 204 209 217 228 240 253 265 276 284 290 296 300 302 301 301 301 301 300 301 304 308 312 315 316 317 317 317 317 317 318
226 228 232 237 234 229 229 228 218 210 210 212 214 217 222 222 229 243 249 257 268 279 297 313 304 281 279 274 276 280 282 280 276 272 267 261 255 243 231 223 220 218 215 216 220 227 237 246 256 266 273 279 285 290 295 298 299 299 298 298 297 298 300 303 307 310 313 314 313 313 311 310 310 310
215 216 221 223 224 225 230 225 213 207 212 220 216 211 223 224 226 246 254 267 281 290 300 304 305 299 288 281 277 281 288 286 279 270 260 251 242 238 236 231 228 228 229 231 236 242 250 258 265 272 278 283 287 290 292 294 295 295 295 295 294 295 297 299 302 305 307 309 308 308 306 305 305 305
200 209 213 213 216 216 218 214 206 206 211 225 223 211 221 226 225 249 255 267 285 289 291 289 293 288 278 280 273 275 284 280 276 271 258 251 248 244 240 238 238 239 240 242 246 251 256 263 268 274 278 283 285 288 290 292 293 293 292 292 291 291 292 293 295 298 300 302 302 303 303 302 302 303
197 205 206 202 201 203 209 203 200 207 198 199 226 223 207 195 198 249 272 285 288 283 274 271 271 266 268 268 254 261 270 261 257 263 259 250 249 250 249 246 244 242 245 248 251 255 259 263 268 272 277 280 283 285 287 288 289 290 290 289 287 286 286 287 289 291 292 294 296 298 300 301 301 301
200 199 201 192 182 186 195 190 191 196 169 175 215 228 196 189 198 239 262 264 264 248 234 247 249 242 262 271 260 249 259 263 252 244 253 255 250 246 247 251 252 251 252 253 255 257 260 264 267 270 273 276 278 280 282 284 285 286 286 285 284 283 283 284 286 288 289 291 294 296 298 299 299 299
201 197 201 182 166 175 187 182 181 185 178 185 209 204 172 187 201 221 239 252 263 244 227 252 265 257 258 273 277 267 255 262 266 256 247 249 253 253 249 248 251 253 255 258 261 262 263 265 267 269 271 273 275 277 280 282 284 285 285 285 284 283 283 284 286 288 289 291 293 295 297 298 298 298
194 194 198 172 161 178 187 181 181 191 202 206 198 194 203 205 203 215 234 254 276 280 275 278 283 284 278 272 276 279 273 262 263 268 264 256 255 258 260 260 258 256 257 260 264 268 270 271 271 272 274 275 278 281 284 287 289 289 288 288 287 286 285 286 287 288 289 291 292 294 296 296 296 295
205 203 198 184 189 201 199 197 198 203 215 219 210 214 229 227 215 218 231 245 262 276 285 286 287 290 289 281 272 277 284 280 269 266 268 268 266 262 263 268 271 272 270 269 269 272 274 276 278 278 280 282 286 289 291 292 292 291 291 290 289 289 288 287 287 287 288 289 290 292 293 293 293 292
209 210 211 213 219 223 221 221 222 226 231 233 238 239 237 244 253 253 251 253 254 256 264 269 271 274 279 281 279 277 283 289 291 283 269 267 273 274 274 276 278 279 278 275 274 273 274 277 279 281 284 289 294 295 296 295 292 291 291 289 289 289 289 288 287 287 287 288 288 289 290 290 290 291
210 221 229 232 231 233 236 237 238 246 250 249 255 258 256 263 275 278 273 268 264 259 257 259 260 260 261 265 271 274 275 283 290 291 284 280 283 288 292 292 292 291 290 286 281 277 277 280 280 280 284 290 293 295 298 297 293 291 290 290 290 290 289 289 288 288 287 286 286 287 287 288 289 292
226 237 244 243 242 244 249 253 253 257 260 262 264 265 266 269 273 276 276 274 272 271 270 267 263 263 264 262 261 264 263 257 254 260 269 276 281 286 288 289 292 294 295 293 289 283 279 278 278 280 283 286 290 293 297 297 294 292 291 290 290 290 290 289 288 287 286 284 283 284 285 287 290 294
233 240 243 247 255 260 262 264 265 267 267 267 268 268 268 267 266 266 265 265 267 267 269 272 271 270 271 269 266 264 262 256 250 247 250 256 262 270 275 278 282 285 287 288 289 288 286 282 279 280 281 282 285 290 292 293 294 293 291 290 289 289 290 289 287 285 282 281 281 282 284 287 291 294
240 249 251 251 254 256 259 262 263 263 264 264 266 267 267 266 264 263 261 260 260 259 259 263 267 270 270 270 271 273 272 273 270 263 257 256 259 264 269 273 276 274 274 275 278 282 286 287 285 284 284 283 286 289 290 288 290 291 290 290 290 289 289 289 286 281 278 277 278 280 283 287 291 294
238 245 249 249 248 245 245 251 257 260 262 265 268 269 267 266 266 266 268 268 267 266 265 263 264 266 267 268 270 272 274 277 277 275 273 273 273 275 276 277 278 276 275 273 272 273 279 285 286 285 285 287 290 293 293 292 292 291 291 292 292 290 289 287 282 276 274 274 276 280 284 287 290 294
245 247 250 251 255 256 251 250 255 262 266 267 269 271 269 268 270 270 271 273 274 275 273 270 267 265 266 267 269 269 270 272 273 275 277 278 278 279 279 278 278 278 279 278 275 274 276 281 282 282 285 289 292 294 295 297 297 296 295 296 294 291 289 285 279 273 272 275 278 282 284 286 290 294
256 258 258 254 255 266 270 267 265 267 269 270 272 273 272 271 273 274 274 275 276 275 275 273 271 267 266 266 266 266 267 269 271 272 273 274 275 277 277 277 277 277 277 277 277 276 276 278 279 281 284 287 289 292 295 297 297 296 296 295 294 293 289 282 276 274 276 278 280 282 282 285 290 293
259 263 263 258 254 261 272 276 276 272 272 276 278 278 277 275 275 277 276 275 274 274 276 275 275 272 269 267 266 266 267 268 269 269 269 270 272 272 272 273 275 275 274 274 275 276 278 280 282 285 286 286 287 291 294 294 293 292 292 292 292 291 285 275 271 273 276 277 278 279 282 287 292 295
262 267 268 267 267 268 272 275 277 276 279 284 285 285 284 283 283 282 279 275 274 275 278 279 279 277 273 270 269 268 268 268 268 269 269 270 270 270 271 271 272 273 272 272 273 275 278 282 284 286 288 289 290 292 292 291 290 290 291 290 288 285 278 272 272 274 277 278 279 282 286 290 295 297
263 266 270 273 275 276 276 277 279 280 284 288 288 287 287 285 284 283 281 279 277 276 279 282 282 278 276 275 273 271 270 269 269 270 272 272 270 271 273 274 274 274 274 276 278 280 281 283 286 287 288 289 290 290 291 292 291 291 291 290 287 282 278 276 277 279 282 283 283 286 289 291 295 297
265 267 271 275 278 280 281 281 283 284 286 289 289 286 283 281 281 281 281 282 280 277 278 280 280 280 280 277 274 273 274 274 273 273 272 271 271 272 274 276 278 279 280 282 286 288 287 287 288 289 288 287 287 288 289 290 289 288 289 289 288 285 281 279 280 283 285 285 286 289 292 293 293 294
267 269 273 277 281 283 284 285 286 287 289 290 288 284 280 278 279 281 283 285 285 284 283 281 280 282 282 278 275 276 276 274 274 274 273 272 273 275 277 278 280 281 283 285 288 288 288 288 288 288 285 285 286 287 287 285 282 283 285 286 285 284 282 282 284 285 285 286 289 292 294 294 293 293
269 273 278 281 283 285 285 286 286 285 283 281 280 279 279 278 279 282 284 286 287 288 287 284 283 284 283 281 281 280 276 273 272 272 271 273 275 276 277 278 279 280 283 284 285 285 286 287 288 287 284 285 289 289 286 283 281 282 283 283 283 284 285 286 287 287 288 290 293 295 296 296 295 295
271 274 277 279 281 282 283 283 282 279 276 275 277 279 279 278 278 279 280 281 283 285 286 285 285 284 282 282 283 282 280 278 275 272 271 271 273 274 275 277 279 281 282 282 281 283 284 284 283 280 280 283 286 284 281 279 280 281 282 283 285 287 288 288 289 291 293 295 297 299 300 299 297 297
271 275 278 280 281 281 280 279 279 278 277 278 279 280 279 279 280 279 280 281 281 281 282 281 281 280 279 279 280 281 280 279 279 279 277 274 273 274 276 277 277 277 277 278 280 281 282 281 279 276 275 277 277 274 273 274 275 276 278 281 285 286 287 289 291 293 296 299 302 304 303 300 298 298
274 277 279 279 279 279 279 279 279 279 279 279 279 279 279 279 279 280 280 280 280 279 278 277 277 276 276 276 276 275 275 276 279 281 279 278 278 279 277 275 273 271 272 275 278 279 279 280 280 277 273 271 268 267 269 270 271 272 275 277 279 282 285 288 289 292 296 300 302 303 301 298 296 296
275 276 276 276 277 278 279 280 280 280 280 280 279 279 279 280 280 280 280 280 279 278 277 276 275 275 274 274 274 274 274 274 274 274 275 277 280 281 278 275 273 273 274 275 276 277 278 279 279 277 274 272 270 269 270 270 270 271 272 274 276 279 282 284 286 290 295 298 300 300 298 296 293 292
273 273 273 274 276 277 278 279 280 280 281 280 280 281 282 283 283 284 284 283 281 280 280 280 280 279 279 278 278 277 275 273 271 271 272 273 275 276 277 279 280 282 282 280 279 278 277 277 278 277 276 275 273 271 271 271 271 272 274 275 277 278 280 282 286 290 294 295 295 296 295 293 290 290
275 275 275 276 276 277 278 279 280 280 280 281 283 284 286 286 287 287 287 287 286 287 288 288 287 287 286 285 283 281 278 275 274 275 276 276 275 274 275 278 283 286 286 284 281 279 277 276 276 275 275 276 275 274 274 273 274 276 276 275 275 277 279 283 286 290 292 291 292 292 291 289 288 289
279 279 279 279 279 280 282 282 282 283 285 288 291 292 292 291 291 291 290 291 291 292 291 290 289 288 287 286 284 283 280 277 276 277 277 278 277 276 277 279 282 284 283 282 283 284 282 281 279 276 274 275 275 274 273 273 274 275 275 274 275 278 282 284 287 288 288 289 291 290 287 286 287 289
286 286 286 286 287 288 289 289 291 294 297 299 298 296 295 295 295 295 296 296 296 295 293 290 289 287 285 283 282 280 279 277 275 274 274 275 276 278 281 284 284 283 283 286 290 291 288 285 282 276 271 269 270 271 272 274 275 275 276 278 280 282 283 284 285 286 287 288 288 285 284 286 288 289
290 292 293 292 292 292 293 295 298 300 300 300 299 298 299 299 299 300 301 301 300 298 296 295 294 292 289 285 279 275 274 275 275 275 276 278 280 282 285 288 290 291 291 293 295 292 286 282 279 275 272 271 273 274 276 278 278 278 279 280 281 281 282 281 283 285 285 285 283 282 284 287 289 290
294 295 294 294 295 296 299 302 303 302 302 303 305 306 307 306 306 307 306 305 303 303 304 304 302 298 294 289 282 276 273 273 275 277 280 283 285 287 289 291 294 294 292 291 290 288 282 277 274 274 275 276 277 277 278 278 277 277 277 276 277 277 277 277 278 279 280 281 282 284 286 288 289 293
297 296 296 298 301 305 309 311 311 311 313 314 314 315 315 314 313 313 313 311 309 310 313 312 307 301 297 292 286 280 276 276 280 285 289 290 290 290 290 291 292 291 290 288 286 284 282 281 280 279 280 282 282 283 282 281 279 277 276 275 276 276 275 274 274 275 278 282 285 286 288 290 293 298
302 304 307 311 315 319 320 319 319 320 319 318 317 318 318 316 314 314 314 311 310 314 317 312 306 303 301 298 293 288 283 282 284 287 289 290 289 290 291 291 292 294 294 293 293 293 291 289 287 286 286 289 291 291 289 287 284 281 278 276 275 275 274 273 275 278 282 286 287 288 291 294 298 304
317 320 320 320 321 322 321 319 318 318 316 315 314 314 313 312 312 311 309 307 307 312 315 309 303 303 303 302 299 296 290 286 286 287 288 288 289 291 292 294 296 298 298 298 298 297 295 293 292 292 293 294 294 292 290 286 282 279 276 274 273 274 275 276 279 283 286 287 287 290 293 297 302 311
325 323 319 318 317 315 314 313 311 310 310 310 309 308 308 309 309 307 305 304 305 309 312 310 305 303 304 305 305 299 289 282 283 287 290 292 292 292 294 295 296 297 298 299 300 298 295 293 294 293 292 291 290 289 286 281 276 274 274 273 272 274 278 280 281 284 286 287 289 292 297 302 309 317
318 316 315 314 312 311 310 310 309 308 308 308 308 307 308 308 308 305 303 303 304 307 310 310 307 304 304 306 306 302 296 289 287 287 288 290 292 295 296 296 296 296 298 301 303 303 302 300 299 298 295 292 288 283 278 273 269 271 274 275 274 278 283 285 285 285 286 288 291 295 301 307 313 320
316 316 315 315 314 313 313 312 312 312 312 312 312 311 310 310 310 309 307 306 307 308 309 311 309 306 304 305 305 305 305 303 301 298 296 296 298 300 299 298 297 297 298 301 304 306 306 307 308 310 309 303 293 282 273 266 263 268 275 281 283 286 289 289 288 288 291 293 297 301 305 312 321 327
320 319 319 319 318 317 316 316 316 316 316 316 316 314 313 314 316 317 317 315 312 310 310 309 308 305 305 307 310 311 309 306 304 304 304 303 303 303 303 301 300 299 299 301 303 306 308 307 307 309 309 305 297 286 274 267 265 268 276 282 285 288 291 292 292 292 294 297 300 304 309 317 325 327
327 326 325 323 322 321 321 321 321 320 320 319 317 314 312 312 315 320 324 324 321 317 313 307 304 302 303 305 307 307 306 306 301 298 298 300 301 303 303 302 302 302 299 297 297 300 303 305 304 304 305 305 299 289 279 273 271 273 276 279 283 286 290 293 294 295 295 296 300 306 312 317 321 322
337 334 332 329 327 326 325 324 324 323 322 320 318 316 313 311 311 314 317 320 320 319 316 310 306 305 302 299 297 296 297 296 292 289 293 298 301 302 302 302 302 299 293 289 288 292 299 303 302 300 300 299 294 287 282 279 279 279 279 281 284 288 291 295 297 299 298 296 299 306 310 314 317 320
349 345 341 337 334 331 329 328 328 327 325 322 320 317 315 313 313 314 315 317 319 320 322 322 321 317 311 305 300 296 294 293 293 296 300 304 304 304 304 305 305 300 295 293 293 294 296 299 298 296 293 289 284 282 282 281 282 283 284 286 288 291 293 294 296 300 302 301 300 308 316 320 321 320